Location: Drocourt
(49.0571°N, 1.7669°E)
Time: 20:12:16
(UTC+00:00)

S-56A Canister/Altair - Pass Details

Date: 21 April 2024
Orbit: 638 x 2488 km, 38.9° (Epoch: 20 May)

Event Time Altitude Azimuth Distance (km) Brightness Sun altitude
Rises 20:24:17 0° 265° (W) 3,761 11.8 -13.6°
Reaches altitude 10° 20:26:51 10° 256° (WSW) 3,022 11.1 -14.0°
Maximum altitude 20:33:29 33° 195° (SSW) 2,247 9.7 -14.8°
Enters shadow 20:39:46 18° 146° (SE) 3,449 10.2 -15.6°
Drops below altitude 10° 20:42:48 10° 137° (SE) 4,289 - -16.0°
Sets 20:47:15 0° 130° (SE) 5,568 - -16.5°
